This is the latest recevied weather packets stored in our database for station/object KB1FFS. If no packets are shown the sender has not sent any weather packets the latest 1 day(s).
| Time | Temp. | Humidity | Pressure | Rain* | Wind** | Luminosity | Snow |
|---|---|---|---|---|---|---|---|
| 1777991573 | 23.89° C | 75% | 1005.5 hPa | 0 mm | 0 m/s | 142 W/m² | - |
| 1777991270 | 23.89° C | 77% | 1005.4 hPa | 0 mm | 1.34 m/s, 38° | 152 W/m² | - |
| 1777990967 | 23.89° C | 77% | 1005.4 hPa | 0 mm | 2.24 m/s, 37° | 158 W/m² | - |
| 1777990665 | 23.89° C | 77% | 1005.5 hPa | 0 mm | 1.34 m/s, 47° | 142 W/m² | - |
| 1777990362 | 23.89° C | 77% | 1005.4 hPa | 0 mm | 1.34 m/s, 5° | 131 W/m² | - |
| 1777990058 | 23.89° C | 77% | 1005.4 hPa | 0 mm | 0.89 m/s, 21° | 135 W/m² | - |
| 1777989755 | 23.33° C | 78% | 1005.2 hPa | 0 mm | 1.79 m/s, 29° | 125 W/m² | - |
| 1777989451 | 23.33° C | 78% | 1005.3 hPa | 0 mm | 0.89 m/s, 5° | 120 W/m² | - |
| 1777989148 | 23.33° C | 79% | 1005.2 hPa | 0 mm | 0.89 m/s, 45° | 123 W/m² | - |
| 1777988844 | 22.78° C | 80% | 1005.6 hPa | 0 mm | 0.45 m/s, 41° | 125 W/m² | - |
| 1777988541 | 22.78° C | 80% | 1005.5 hPa | 0 mm | 0 m/s | 100 W/m² | - |
| 1777988238 | 22.78° C | 80% | 1005.4 hPa | 0 mm | 0.89 m/s, 6° | 82 W/m² | - |
| 1777987934 | 22.78° C | 80% | 1005.3 hPa | 0 mm | 0.89 m/s, 71° | 75 W/m² | - |
| 1777987630 | 22.78° C | 80% | 1005.5 hPa | 0 mm | 1.34 m/s, 139° | 70 W/m² | - |
| 1777987328 | 22.78° C | 81% | 1005.2 hPa | 0 mm | 1.34 m/s, 102° | 91 W/m² | - |
| 1777987025 | 22.78° C | 81% | 1005.2 hPa | 0 mm | 1.34 m/s, 38° | 95 W/m² | - |
| 1777986723 | 22.22° C | 81% | 1005.2 hPa | 0 mm | 0.89 m/s, 80° | 79 W/m² | - |
| 1777986420 | 22.22° C | 82% | 1005 hPa | 0 mm | 0.89 m/s, 349° | 72 W/m² | - |
| 1777986119 | 22.22° C | 82% | 1005 hPa | 0 mm | 0.89 m/s, 17° | 61 W/m² | - |
| 1777985815 | 22.22° C | 83% | 1005.3 hPa | 0 mm | 0.89 m/s, 358° | 61 W/m² | - |
| 1777985512 | 22.22° C | 83% | 1005 hPa | 0 mm | 1.34 m/s, 17° | 51 W/m² | - |
| 1777985208 | 21.67° C | 83% | 1005.5 hPa | 0 mm | 1.34 m/s, 55° | 52 W/m² | - |
| 1777984905 | 21.67° C | 84% | 1005.1 hPa | 0 mm | 0 m/s | 43 W/m² | - |
| 1777984601 | 21.67° C | 84% | 1004.9 hPa | 0 mm | 0.89 m/s, 116° | 42 W/m² | - |
| 1777984298 | 21.67° C | 84% | 1004.9 hPa | 0 mm | 0 m/s | 30 W/m² | - |
* Rain latest hour (hover to see other rain measurements)
** Current wind speed in m/s (hover to see current wind gust speed)